User: anonymous   Login
Location: Ottawa
(45.4170°N, 75.7000°W)
Time: 15:58:23
(UTC-04:00)
Language:

Aureole 3 Rocket - Orbit

View from above orbital plane
View from above orbital plane
View from above satellite
View from above satellite

Ground track
Ground track

The orbit data is extracted from the following two-line orbital elements,

1 12849U 81094B   16125.96434669 +.00000835 +00000-0 +73376-4 0  9994
2 12849 082.4898 119.9370 0906091 072.4027 297.3925 13.49777844686867
Epoch (UTC): 04 May 2016 23:08:39
Eccentricity: 0.0906091
inclination: 82.4898°
perigee height: 398 km
apogee height: 1748 km
right ascension of ascending node: 119.9370°
argument of perigee: 72.4027°
revolutions per day: 13.49777844
mean anomaly at epoch: 297.3925°
orbit number at epoch: 68686

The dashed part of the orbit path shows where the satellite is in the earth's shadow,  

DLR